Regional Weather Roundup
Issued by NWS State College, PA

Home | Current Version | Previous Version | Text Only | Print | Product List | Glossary Off
Versions: 1 2 3 4 5 6 7 8 9 10 11 12 13 14 15 16 17 18 19 20 21 22 23 24 25 26 27 28 29 30 31 32 33 34 35 36 37 38 39 40 41 42 43 44 45 46 47 48 49 50

000
ASUS41 KCTP 152310
RWRCTP

REGIONAL WEATHER ROUNDUP
NATIONAL WEATHER SERVICE STATE COLLEGE PA
700 PM EDT TUE APR 15 2014

Note: "fair" indicates few or no clouds below 12,000 feet with no
significant weather and/or obstructions to visibility.

* = STATION THAT DOES NOT REPORT PRECIPITATION /E.G. RAIN...SNOW...ETC/
    THUNDER OR FOG.

PAZ002>004-007>009-013>016-020>023-029>032-160000-
WESTERN PENNSYLVANIA

CITY           SKY/WX    TMP DP  RH WIND       PRES   REMARKS
ERIE           CLOUDY    30  19  63 NW13G18   30.05R
MEADVILLE      NOT AVBL
FRANKLIN*      CLOUDY    27  19  74 NW9G17    29.99S
NEW CASTLE     FAIR      28  19  69 W12G18    30.04R
BEAVER COUNTY  NOT AVBL
BUTLER*        CLOUDY    28  19  69 NW10G18   30.00F
PITTSBURGH INT CLOUDY    31  21  66 NW20G30   30.00R
PITTSBURGH     CLOUDY    32  22  66 NW18G29   30.00R
INDIANA*       CLOUDY    28  23  80 NW16G28   29.97R
LATROBE        LGT RAIN  32  27  80 NW12G23   30.00R
WASHINGTON CO* CLOUDY    30  21  69 W12G22    30.04R
$$

PAZ004>006-010>012-017>019-024>028-033>037-041-042-045-046-049>053-160000-
CENTRAL PENNSYLVANIA

CITY           SKY/WX    TMP DP  RH WIND       PRES   REMARKS
BRADFORD       LGT SNOW  25  17  72 W17G29    29.89R WCI  12
DUBOIS         CLOUDY    29  20  69 NW16G24   29.90R
CLEARFIELD     MIX PCPN  30  22  72 NW17G28   29.90R
JOHNSTOWN      FLURRIES  26  22  84 NW20G31   29.86R WCI  12
ALTOONA        FLURRIES  33  25  72 NW23G31   29.87R
STATE COLLEGE  LGT SNOW  34  25  69 NW13      29.90R FOG
WILLIAMSPORT   CLOUDY    37  31  78 W12       29.89R HAZE
SELINSGROVE    LGT RAIN  39  33  79 NW15      29.88R
FT INDIANTOWN  RAIN      39  39 100 W6G22     29.83R FOG
CAPITAL CITY   LGT RAIN  40  35  83 NW17G24   29.87R
HARRISBURG     RAIN      41  36  82 NW18G24   29.85R
YORK           LGT RAIN  39  34  82 NW16G28   29.84R
$$

PAZ038>040-043-044-047-048-054-055-060>062-067>071-160000-
EASTERN PENNSYLVANIA

CITY           SKY/WX    TMP DP  RH WIND       PRES   REMARKS
SCRANTON       FLURRIES  36  32  87 NW16G23   29.82R
MOUNT POCONO   LGT RAIN  33  29  85 NW16G29   29.71R FOG
ALLENTOWN      LGT RAIN  42  36  79 NW13      29.79R
QUAKERTOWN*    CLOUDY    41  39  93 NW10      29.78R
READING        LGT RAIN  43  39  86 NW14      29.79R FOG
LANCASTER      LGT RAIN  40  35  83 NW17G28   29.82R
COATESVILLE    NOT AVBL
POTTSTOWN      LGT RAIN  43  40  89 NW14G22   29.78R FOG
BLUE BELL      CLOUDY    45  41  87 NW7G17    29.76R
DOYLESTOWN     LGT RAIN  43  41  93 NW14G22   29.74R
WILLOW GROVE   NOT AVBL
NORTH PHILA    LGT RAIN  48  40  73 NW17G28   29.76R
PHILADELPHIA   LGT RAIN  47  42  83 NW16G25   29.75R
$$



USA.gov is the U.S. government's official web portal to all federal, state and local government web resources and services.